Regional Weather Roundup
Issued by NWS Upton, NY

Current Version | Previous Version | Text Only | Print | Product List | Glossary On
Versions: 1 2 3 4 5 6 7 8 9 10 11 12 13 14 15 16 17 18 19 20 21 22 23 24 25 26 27 28
000
ASUS41 KOKX 300405
RWROKX

REGIONAL WEATHER ROUNDUP
NATIONAL WEATHER SERVICE NEW YORK NY
1200 AM EDT THU OCT 30 2014

NOTE: "FAIR" INDICATES FEW OR NO CLOUDS BELOW 12,000 FEET WITH NO
SIGNIFICANT WEATHER AND/OR OBSTRUCTIONS TO VISIBILITY.

NYZ071-072-176-178-NJZ106-104-300500-
NEW YORK CITY METRO AREA


CITY           SKY/WX    TMP DP  RH WIND       PRES   REMARKS
CENTRAL PARK   PTCLDY    52  46  80 VRB5      29.97S
LAGUARDIA APRT MOCLDY    54  47  77 NW8       29.95R
KENNEDY INTL   MOCLDY    54  46  74 NW8       29.96S
NEWARK/LIBERTY MOCLDY    50  48  93 W6        29.95S
BRNX BOT. GARD   N/A     50  46  87 N3        29.95R
TETERBORO      PTCLDY    50  46  86 NW3       29.94S
$$

NYZ177-179-078>081-300500-
LONG ISLAND NEW YORK

CITY           SKY/WX    TMP DP  RH WIND       PRES   REMARKS
FARMINGDALE    MOCLDY    53  48  83 NW3       29.95R
ISLIP          MOCLDY    52  48  86 NW5       29.93R
SHIRLEY        LGT RAIN  53  49  86 NW5       29.95R
WESTHAMPTON    CLOUDY    56  48  74 NW10      29.94R
MONTAUK POINT    N/A     57  46  66 NW10      29.93S
$$

NYZ052-065-067-300500-
HUDSON VALLEY

CITY           SKY/WX    TMP DP  RH WIND       PRES   REMARKS
WHITE PLAINS   PTCLDY    50  47  89 NW3       29.93F
NEWBURGH       CLEAR     43  43 100 CALM      29.95F
MONTGOMERY     FOG       40  39  97 SW3       29.93F VSB 1/2
POUGHKEEPSIE   FOG       43  42  97 CALM      29.93F VSB 1/4
ALBANY         CLOUDY    47  42  83 CALM      29.92F
$$

NJZ001-105-106-008-010-013-015-019>022-104-300500-
NEW JERSEY

CITY           SKY/WX    TMP DP  RH WIND       PRES   REMARKS
NEWARK/LIBERTY MOCLDY    50  48  93 W6        29.95S
TETERBORO      PTCLDY    50  46  86 NW3       29.94S
CALDWELL       FOG       45  42  89 CALM      29.96S VSB 1/2
MORRISTOWN     FOG       45  41  87 CALM      29.95S VSB 1/4
SOMERVILLE     CLOUDY    42  40  92 CALM      29.95S FOG
SUSSEX         FOG       44  41  89 CALM      29.96S VSB 1/4
ANDOVER          N/A     42  42 100 CALM      29.96S
TRENTON        FOG       48  46  93 NW5       29.97S VSB 1/2
MILLVILLE      MOCLDY    47  45  93 CALM      29.98F
ATLANTIC CITY  CLOUDY    51  46  83 NW5       29.97F
WRIGHTSTOWN    MOCLDY    50  49  95 W6        29.96R
TOMS RIVER     CLOUDY    50  46  87 CALM      29.98R
BELMAR         CLOUDY    52  43  71 W6        29.96S
$$

PAZ047>061-062-071-300500-
EASTERN PENNSYLVANIA

CITY           SKY/WX    TMP DP  RH WIND       PRES   REMARKS
PHILADELPHIA   MOCLDY    52  48  86 NW7       29.98S
ALLENTOWN      FOG       48  46  93 W3        29.97S VSB 1/4
SCRANTON       CLOUDY    47  45  93 CALM      29.95S FOG
$$

CTZ002-004>006-009-010-012-RIZ004-006-007-MAZ004-011-015-300500-
SOUTHERN NEW ENGLAND
 IN CT

CITY           SKY/WX    TMP DP  RH WIND       PRES   REMARKS
BRADLEY INTL   MOCLDY    47  38  71 NW7       29.91S
HARTFORD       MOCLDY    50  39  66 SW7       29.93R
DANBURY        FOG       45  42  89 CALM      29.94S VSB 3/4
WTRBRY/OXFORD  MOCLDY    46  39  76 CALM      29.93S
BRIDGEPORT     MOCLDY    51  48  89 NW6       29.93S
MERIDEN        MOCLDY    49  39  68 NW5       29.93S
NEW HAVEN      MOCLDY    53  47  79 NW5       29.93S
CHESTER        FAIR      48  43  81 NW6       29.93R
GROTON         CLOUDY    52  46  80 NW7       29.91R
WILLIMANTIC    CLOUDY    51  43  74 NW5       29.92R

 IN RI

CITY           SKY/WX    TMP DP  RH WIND       PRES   REMARKS
PROVIDENCE     CLOUDY    53  49  86 W3        29.90S
BLOCK ISLAND   CLOUDY    54  46  76 N8        29.91R
WESTERLY       CLOUDY    54  48  80 NW3       29.91S

 IN MA

CITY           SKY/WX    TMP DP  RH WIND       PRES   REMARKS
BOSTON         CLOUDY    54  48  80 W14G20    29.87R
WORCESTER      MOCLDY    46  41  82 W10       29.89R
WESTFIELD      PTCLDY    41  40  96 CALM      29.92R FOG
PROVINCETOWN   CLOUDY    52   0  11 W8        29.87F
NANTUCKET      CLOUDY    59  53  80 N15       29.85R
$$

ANZ330-335-338-340-345-350-353-355-300500-
COASTAL MARINE OBSERVATIONS


STATION/POSITION TIME  SKY/WX   TEMP    WIND        PRES    VSBY  WAVE
                                AIR SEA DIR/SP/G                  HT/PER
                 (UTC)          (F)     (DEG/KT/KT) (MB)    (MI)  (FT/S)
NY HARB ENTRANCE 0400            56 61  290/ 14/ 17 1014.2          3/ 6
4S FIRE IS       0400               62                N/A           3/ 7
20S FIRE ISLAND  0400            57 62  300/ 16/ 17 1013.3          3/ 6
23SW MTP         0400                                 N/A           4/ 7
HUDSON CANYON    0400            58 65  320/ 17/ 21 1012.6          5/ 5
EXECUTION ROCKS  0400            55 60  320/ 10/ 14   N/A
WESTERN LI SOUND 0400            55     320/ 10/ 12   N/A           0
CENTRAL LI SOUND 0300            56 61  320/ 14/ 16   N/A           2/ 4
EASTERN LI SOUND 0300            56 62  320/ 10/ 14   N/A
ROBBINS REEF     0400            53     280/  9/ 10 1013.0
$$


>>>>>>>>>>>>>>>>>>>>>>>>>>>> KEY <<<<<<<<<<<<<<<<<<<<<<<<<<<
>                                                          <
>     SKY/WX - SKY CONDITION/PRESENT WEATHER               <
>     TMP    - TEMPERATURE IN FAHRENHEIT                   <
>     DP     - DEWPOINT IN FAHRENHEIT                      <
>     RH     - RELATIVE HUMIDITY IN PERCENT                <
>     WIND   - DIRECTION AND SPEED IN MPH                  <
>     PRES   - MEAN SEA LEVEL PRESSURE IN INCHES OF HG     <
>     WCI    - WIND CHILL INDEX                            <
>     VSB    - VISIBILITY IN MILES                         <
>     HX     - HEAT INDEX                                  <
>     TC     - TEMPERATURE IN CELSIUS                      <
>     VRB    - VARIABLE WIND DIRECTION                     <
>                                                          <
>>>>>>>>>>>>>>>>>>>>>>>>>>>> KEY <<<<<<<<<<<<<<<<<<<<<<<<<<<





USA.gov is the U.S. government's official web portal to all federal, state and local government web resources and services.